KB3CAT Weather Reports


time (UTC)temp
F
wind
direction
speed
knots
gust
knots
rain 1hr
in
rain 24hr
in
rain mn
in
humidity
%
barometer
mb
20260505212136 81 135 3.5 8.7 0.00 0.00 0.00 37 1006.5
20260505211117 82 270 2.6 7.0 0.00 0.00 0.00 35 1006.3
20260505210116 81 270 2.6 7.0 0.00 0.00 0.00 36 1006.4
20260505205116 81 248 2.6 5.2 0.00 0.00 0.00 36 1006.3
20260505204116 81 248 2.6 4.3 0.00 0.00 0.00 34 1006.4
20260505203116 82 248 3.5 7.0 0.00 0.00 0.00 34 1006.4
20260505202116 82 225 4.3 9.6 0.00 0.00 0.00 34 1006.4
20260505201238 82 270 7.0 12.2 0.00 0.00 0.00 33 1006.4
20260505200117 82 203 2.6 4.3 0.00 0.00 0.00 36 1006.6
20260505195116 82 270 5.2 7.8 0.00 0.00 0.00 34 1006.8
20260505194117 82 248 8.7 11.3 0.00 0.00 0.00 33 1006.9
20260505193116 82 248 8.7 13.9 0.00 0.00 0.00 33 1007.0
20260505192116 82 270 1.7 4.3 0.00 0.00 0.00 34 1007.2
20260505191116 82 248 1.7 3.5 0.00 0.00 0.00 34 1007.2
20260505190116 83 270 8.7 13.0 0.00 0.00 0.00 32 1007.3
20260505185116 83 225 0.9 3.5 0.00 0.00 0.00 35 1007.4
20260505184116 83 203 1.7 3.5 0.00 0.00 0.00 34 1007.6
20260505183116 82 135 0.9 0.9 0.00 0.00 0.00 35 1007.7
20260505182116 83 248 5.2 8.7 0.00 0.00 0.00 35 1007.8
20260505181137 81 248 7.8 11.3 0.00 0.00 0.00 35 1007.8
20260505180116 82 135 1.7 3.5 0.00 0.00 0.00 35 1008.0
20260505175116 81 248 5.2 7.0 0.00 0.00 0.00 34 1007.9
20260505174116 81 248 8.7 13.0 0.00 0.00 0.00 34 1008.1
20260505173116 82 248 6.1 10.4 0.00 0.00 0.00 35 1008.2
20260505172116 80 225 1.7 5.2 0.00 0.00 0.00 36 1008.4
20260505171116 81 248 6.1 10.4 0.00 0.00 0.00 35 1008.5
20260505170116 81 248 7.8 8.7 0.00 0.00 0.00 36 1008.7
20260505165136 81 248 4.3 7.8 0.00 0.00 0.00 36 1008.8
20260505164116 80 293 3.5 5.2 0.00 0.00 0.00 38 1009.0
20260505163116 79 248 2.6 4.3 0.00 0.00 0.00 39 1009.2
20260505162116 79 248 4.3 7.8 0.00 0.00 0.00 37 1009.4
20260505161116 78 225 2.6 6.1 0.00 0.00 0.00 39 1009.5
20260505160116 78 248 3.5 5.2 0.00 0.00 0.00 39 1009.5
20260505153157 78 225 2.6 5.2 0.00 0.00 0.00 41 1009.7
20260505152116 78 248 5.2 10.4 0.00 0.00 0.00 40 1009.6
20260505151116 78 248 5.2 9.6 0.00 0.00 0.00 39 1009.6
20260505150116 77 248 5.2 7.8 0.00 0.00 0.00 40 1009.5
20260505140117 76 225 0.9 2.6 0.00 0.00 0.00 46 1009.9
20260505130116 70 0.0 0.0 0.00 0.00 0.00 57 1010.1
20260505124136 67 315 1.7 2.6 0.00 0.00 0.00 62 1010.3
20260505123136 67 23 0.9 1.7 0.00 0.00 0.00 62 1010.3
20260505122116 66 0.0 0.0 0.00 0.00 0.00 61 1010.4
20260505121136 65 0.0 0.0 0.00 0.00 0.00 63 1010.4
20260505120116 63 0.0 0.0 0.00 0.00 0.00 67 1010.3
20260505115116 62 0.0 0.0 0.00 0.00 0.00 69 1010.3
20260505114116 60 0.0 0.0 0.00 0.00 0.00 73 1010.2
20260505113117 59 0.0 0.9 0.00 0.00 0.00 75 1010.1
20260505112116 58 0.0 0.9 0.00 0.00 0.00 74 1009.9
20260505111117 58 0.0 0.0 0.00 0.00 0.00 74 1009.9
20260505110116 57 135 0.9 1.7 0.00 0.00 0.00 77 1009.8
20260505102117 52 248 0.9 1.7 0.00 0.00 0.00 83 1009.6
20260505101116 53 0.0 0.9 0.00 0.00 0.00 81 1009.4
20260505100116 53 0.0 0.0 0.00 0.00 0.00 81 1009.4
20260505095116 53 0.0 0.0 0.00 0.00 0.00 83 1009.4
20260505094116 52 0.0 0.0 0.00 0.00 0.00 82 1009.2
20260505093116 53 0.0 0.0 0.00 0.00 0.00 80 1009.2
20260505092116 54 0.0 0.9 0.00 0.00 0.00 80 1009.2
20260505091116 53 0.0 0.0 0.00 0.00 0.00 81 1009.1
20260505090116 53 0.0 0.0 0.00 0.00 0.00 80 1009.2
20260505085116 54 270 0.9 1.7 0.00 0.00 0.00 78 1009.1
20260505084116 54 293 1.7 2.6 0.00 0.00 0.00 79 1009.0
20260505083116 54 0.0 0.0 0.00 0.00 0.00 79 1009.0
20260505082157 54 0.0 0.0 0.00 0.00 0.00 78 1009.0
20260505081116 54 0.0 0.0 0.00 0.00 0.00 78 1009.1
20260505080117 55 0.0 0.0 0.00 0.00 0.00 77 1009.0
20260505075116 55 293 0.9 1.7 0.00 0.00 0.00 76 1008.9
20260505074116 56 0.0 0.0 0.00 0.00 0.00 75 1008.8
20260505073137 56 315 0.9 1.7 0.00 0.00 0.00 74 1008.9
20260505072117 57 0.0 1.7 0.00 0.00 0.00 72 1008.7
20260505071116 58 0.0 0.0 0.00 0.00 0.00 70 1008.7
20260505070117 60 0.0 0.0 0.00 0.00 0.00 68 1008.7
20260505065116 60 0.0 0.9 0.00 0.00 0.00 67 1008.7
20260505064116 59 0.0 0.0 0.00 0.00 0.00 68 1008.8
20260505063117 60 0.0 0.0 0.00 0.00 0.00 67 1008.9
20260505062116 60 0.0 0.0 0.00 0.00 0.00 65 1008.9
20260505061116 62 0.0 0.0 0.00 0.00 0.00 63 1009.0
20260505060116 61 0.0 0.0 0.00 0.00 0.00 63 1009.0
20260505055116 62 0.0 0.0 0.00 0.00 0.00 62 1009.1
20260505054117 63 0.0 0.0 0.00 0.00 0.00 60 1009.1
20260505053157 63 135 0.9 2.6 0.00 0.00 0.00 61 1009.1
20260505052116 64 0.0 0.0 0.00 0.00 0.00 59 1009.0
20260505051116 65 0.0 0.0 0.00 0.00 0.00 56 1009.1
20260505050116 67 0.0 0.9 0.00 0.00 0.00 52 1009.1
20260505041137 68 248 0.9 1.7 0.00 0.00 0.00 52 1008.7
20260505040116 68 68 0.9 1.7 0.00 0.00 0.00 52 1008.5
20260505035136 67 0.0 0.9 0.00 0.00 0.00 53 1008.4
20260505034137 66 248 1.7 3.5 0.00 0.00 0.00 53 1008.5
20260505033116 66 0.0 0.9 0.00 0.00 0.00 53 1008.6
20260505032116 66 225 1.7 3.5 0.00 0.00 0.00 53 1008.6
20260505031116 66 180 0.9 3.5 0.00 0.00 0.00 53 1008.6
20260505030116 67 0.0 0.9 0.00 0.00 0.00 51 1008.5
20260505025117 67 203 0.9 2.6 0.00 0.00 0.00 51 1008.5
20260505024116 67 225 1.7 1.7 0.00 0.00 0.00 50 1008.4
20260505023116 67 225 1.7 2.6 0.00 0.00 0.00 49 1008.4
20260505022116 67 68 0.9 1.7 0.00 0.00 0.00 49 1008.2
20260505021117 67 225 1.7 2.6 0.00 0.00 0.00 48 1008.2
20260505020116 67 225 1.7 1.7 0.00 0.00 0.00 48 1008.3
20260505015116 67 248 1.7 2.6 0.00 0.00 0.00 48 1008.1
20260505014117 67 203 1.7 2.6 0.00 0.00 0.00 47 1008.0
20260505013117 67 180 0.9 1.7 0.00 0.00 0.00 47 1008.1
20260505012117 68 135 1.7 3.5 0.00 0.00 0.00 46 1008.0
20260505011117 68 203 1.7 2.6 0.00 0.00 0.00 45 1007.8
20260505010116 68 158 1.7 2.6 0.00 0.00 0.00 45 1008.0
20260505005138 69 180 0.9 1.7 0.00 0.00 0.00 45 1007.9
20260505004117 69 225 0.9 2.6 0.00 0.00 0.00 44 1007.8
20260505003137 69 135 2.6 5.2 0.00 0.00 0.00 43 1007.6
20260505002116 69 135 1.7 2.6 0.00 0.00 0.00 43 1007.6
20260505001116 69 225 0.9 2.6 0.00 0.00 0.00 43 1007.5
20260505000116 70 135 0.9 2.6 0.00 0.00 0.00 43 1007.5
20260504235116 70 180 0.9 2.6 0.00 0.00 0.00 43 1007.5
20260504234116 71 225 0.9 2.6 0.00 0.00 0.00 42 1007.3
20260504233136 71 113 0.9 3.5 0.00 0.00 0.00 41 1007.3
20260504232117 72 135 2.6 3.5 0.00 0.00 0.00 39 1007.3
20260504231116 72 158 0.9 1.7 0.00 0.00 0.00 40 1007.3
20260504230116 73 180 1.7 3.5 0.00 0.00 0.00 38 1007.3
20260504225137 73 135 1.7 2.6 0.00 0.00 0.00 38 1007.5
20260504224116 73 135 2.6 7.0 0.00 0.00 0.00 38 1007.5
20260504223117 73 135 2.6 7.0 0.00 0.00 0.00 38 1007.4
20260504222136 73 225 1.7 3.5 0.00 0.00 0.00 39 1007.6
20260504221116 73 338 1.7 2.6 0.00 0.00 0.00 39 1007.6
20260504220116 74 135 2.6 5.2 0.00 0.00 0.00 38 1007.5
20260504215117 74 203 0.9 2.6 0.00 0.00 0.00 39 1007.5
20260504214116 74 135 2.6 4.3 0.00 0.00 0.00 38 1007.5
20260504213157 74 135 0.9 1.7 0.00 0.00 0.00 39 1007.5